Location: Ariel
(45.9570°N, 122.5700°W)
Time: 02:47:55
(UTC-07:00)

Transit 4A - Pass Details

Date: 23 July 2019
Orbit: 863 x 981 km, 66.8° (Epoch: 24 August)

Event Time Altitude Azimuth Distance (km) Brightness Sun altitude
Rises 10:17:14 0° 328° (NNW) 3,677 10.7 45.1°
Reaches altitude 10° 10:19:53 10° 332° (NNW) 2,716 10.1 45.6°
Maximum altitude 10:26:09 59° 52° (NE) 1,092 9.4 46.6°
Drops below altitude 10° 10:32:13 10° 131° (SE) 2,629 11.2 47.6°
Sets 10:34:44 0° 136° (SE) 3,550 11.6 48.0°
